CAPE
0 0 0 0 0 0 0 0 0 0 0 0 3 10 9 83 35 3 11 396 474 366 510 512 585 560 478 281 250 277 300 352 388 354 235 175 170 153 146 91 57 167 301 297 177 162 241 238 216
0 0 0 0 0 0 0 0 0 0 0 24 38 47 64 6 41 156 320 517 433 488 598 531 528 488 482 402 267 206 217 220 284 317 237 200 200 232 315 258 131 46 75 228 273 205 187 175 212
0 0 0 0 0 0 0 0 0 14 22 10 34 35 15 4 4 177 558 587 650 561 556 513 485 481 455 403 304 213 155 130 144 194 184 193 246 281 295 302 244 187 217 188 193 299 169 110 163
0 0 0 0 0 0 0 0 0 2 0 3 19 30 0 0 17 390 589 452 493 426 506 538 524 492 460 396 340 301 256 231 210 198 167 154 174 188 134 137 162 126 145 135 175 206 344 328 116
0 0 0 0 0 0 0 0 0 0 1 8 42 13 0 5 235 466 374 155 196 202 266 326 366 391 416 412 392 360 306 240 179 143 141 150 115 73 46 44 23 0 32 65 64 90 66 124 240
0 0 0 0 0 0 0 0 0 2 8 5 5 0 0 91 356 268 128 20 18 12 10 76 131 174 196 211 168 118 107 65 44 45 79 129 147 154 162 164 149 139 106 42 57 107 61 9 0
0 0 0 0 0 0 0 0 0 12 20 20 0 0 0 25 96 14 0 0 0 0 0 0 0 0 6 12 2 0 0 0 0 0 0 0 0 0 0 1 7 55 108 99 62 77 54 17 22
0 0 0 0 0 0 0 0 0 5 8 0 0 0 0 0 0 0 0 0 0 0 0 0 0 0 0 0 0 0 0 0 0 0 0 0 0 0 0 0 0 0 0 11 81 3 9 35 9
0 0 0 0 0 0 0 0 0 0 0 0 0 0 0 0 0 0 0 0 0 0 0 0 0 0 0 0 0 0 0 0 0 0 0 0 0 0 0 0 0 0 0 0 0 1 15 0 6
0 0 0 0 0 0 0 0 0 0 0 0 0 0 0 0 0 0 0 0 0 0 0 0 0 0 0 0 0 0 0 0 0 0 0 0 0 0 0 0 0 0 0 0 0 0 0 7 0
0 0 0 0 0 0 0 0 0 0 0 0 0 0 0 0 0 0 0 0 0 0 0 0 0 0 0 0 0 0 0 0 0 0 0 0 0 0 0 0 0 0 0 0 0 0 0 0 0
0 0 0 0 0 0 0 0 0 0 0 0 0 0 0 0 0 0 0 0 0 0 0 0 0 0 0 0 0 0 0 0 0 0 0 0 0 0 0 0 0 0 0 0 0 0 0 0 0
0 0 0 0 0 0 0 0 0 0 0 0 0 0 0 0 0 0 0 0 0 0 0 0 0 0 0 0 0 0 0 0 0 0 0 0 0 0 0 0 0 0 0 0 0 0 0 0 0
0 0 0 0 0 0 0 0 0 0 0 0 0 0 0 0 0 0 0 0 0 0 0 0 0 0 0 0 0 0 0 0 0 0 0 0 0 0 0 0 0 0 0 0 0 0 0 0 0
0 0 0 0 0 0 0 0 0 0 0 0 0 0 0 0 0 0 0 0 0 0 0 0 0 0 0 0 0 0 0 0 0 0 0 0 0 0 0 0 0 0 0 0 0 0 0 0 0
0 0 0 0 0 0 0 0 0 0 0 0 0 0 0 0 0 0 0 0 0 0 0 0 0 0 0 0 0 0 0 0 0 0 0 0 0 0 0 0 0 0 0 0 0 0 0 0 0
0 0 0 0 0 0 0 0 0 0 0 0 0 0 0 0 0 0 0 0 0 0 0 0 0 0 0 0 0 0 0 0 0 0 0 0 0 0 0 0 0 0 0 0 0 0 0 0 0
0 0 0 0 0 0 0 0 0 0 0 0 0 0 0 0 0 0 0 0 0 0 0 0 0 0 0 0 0 0 0 0 0 0 0 0 0 0 0 0 0 0 0 0 0 0 0 0 0
0 0 0 0 0 0 0 0 0 0 0 0 0 0 0 0 0 0 0 0 0 0 0 0 0 0 0 0 0 0 0 0 0 0 0 0 0 0 0 0 0 0 0 0 0 0 0 0 0
0 0 0 0 0 0 0 0 0 0 0 0 0 0 0 0 0 0 0 0 0 0 0 0 0 0 0 0 0 0 0 0 0 0 0 0 0 0 0 0 0 0 0 0 0 0 0 0 0
0 0 0 0 0 0 0 0 0 0 0 0 0 0 0 0 0 0 0 0 0 0 0 0 0 0 0 0 0 0 0 0 0 0 0 0 0 0 0 0 0 0 0 0 0 0 0 1 0
0 0 0 0 0 0 0 0 0 0 0 0 0 0 0 0 0 0 0 0 0 0 0 0 0 0 0 0 0 0 0 0 0 0 0 0 0 0 0 0 0 0 0 0 0 0 0 0 2
0 0 0 0 0 0 0 0 0 0 0 0 0 0 0 0 0 0 0 0 0 0 0 0 0 0 0 0 0 0 0 0 0 0 0 0 0 0 0 0 0 0 0 0 0 0 1 1 2
0 0 0 0 0 0 0 0 0 0 0 0 0 0 0 0 0 0 0 0 0 0 0 0 0 0 0 0 0 0 0 0 0 0 0 0 0 0 0 0 0 0 0 0 0 0 0 0 2
0 0 0 0 0 0 0 0 0 0 0 0 0 0 0 0 0 0 0 0 0 0 0 0 0 0 0 0 0 0 0 0 0 0 0 0 0 0 0 0 0 0 1 0 1 1 0 1 1
0 0 0 0 0 0 0 0 0 0 0 0 0 0 0 0 0 0 0 0 0 0 0 0 0 0 0 0 0 0 0 0 0 0 0 0 0 0 0 0 0 0 0 0 0 0 1 1 0
0 0 0 0 0 0 0 0 0 0 0 0 0 0 0 0 0 0 0 0 0 0 0 0 0 0 0 0 0 0 0 0 0 0 0 0 0 0 0 0 0 0 0 0 1 1 0 0 0
0 0 0 0 0 0 0 0 0 0 0 0 0 0 0 0 0 0 0 0 0 0 0 0 0 0 0 0 0 0 0 0 0 0 0 0 0 0 0 0 0 0 0 0 1 0 1 1 1
0 0 0 0 0 0 0 0 0 0 0 0 0 0 0 0 0 0 0 0 0 0 0 0 0 0 0 0 0 0 0 0 0 0 0 0 0 0 0 0 0 0 1 1 1 1 1 1 1
0 0 0 0 0 0 0 0 0 0 0 0 0 0 0 0 0 0 0 0 0 0 0 0 0 0 0 0 0 0 0 0 0 0 0 0 0 0 0 0 0 1 1 0 1 1 1 2 2
CIN
-0 -0 -0 -0 -0 -0 -0 -0 -0 -0 -0 -0 -17 -54 -89 -174 -125 -29 -35 -71 -59 -71 -53 -36 -20 -13 -17 -57 -68 -42 -18 -10 -16 -3 -23 -39 -33 -40 -45 -57 -96 -62 -30 -30 -37 -34 -22 -11 -8
-0 -0 -0 -0 -0 -0 -0 -0 -0 -0 -0 -69 -88 -100 -98 -161 -264 -162 -85 -50 -61 -49 -36 -41 -29 -30 -23 -32 -58 -68 -51 -43 -24 -12 -25 -32 -25 -16 -5 -9 -39 -82 -60 -10 -18 -27 -30 -37 -25
-0 -0 -0 -0 -0 -0 -0 -0 -0 -28 -45 -45 -60 -150 -87 -64 -310 -144 -54 -55 -52 -46 -43 -32 -33 -28 -35 -44 -58 -76 -89 -92 -80 -47 -41 -33 -14 -4 -3 -1 -3 -16 -9 -12 -11 -0 -26 -37 -15
-0 -0 -0 -0 -0 -0 -0 -0 -0 -13 -0 -40 -94 -64 -0 -0 -272 -98 -63 -77 -76 -78 -42 -25 -27 -31 -39 -52 -59 -57 -56 -55 -56 -48 -52 -54 -34 -23 -32 -39 -23 -26 -12 -14 -4 -1 -0 -1 -21
-0 -0 -0 -0 -0 -0 -0 -0 -0 -0 -14 -20 -52 -40 -0 -52 -135 -96 -102 -149 -136 -137 -97 -76 -63 -51 -40 -36 -39 -44 -46 -51 -55 -52 -41 -38 -49 -52 -64 -63 -77 -5 -89 -62 -49 -32 -28 -12 -2
-0 -0 -0 -0 -0 -0 -0 -0 -0 -5 -29 -45 -37 -0 -0 -113 -79 -127 -181 -254 -100 -113 -122 -198 -152 -117 -101 -83 -92 -103 -93 -108 -110 -98 -58 -30 -21 -18 -18 -9 -6 -2 -5 -49 -30 -14 -36 -52 -0
-0 -0 -0 -0 -0 -0 -0 -0 -0 -20 -14 -24 -0 -0 -0 -154 -155 -163 -0 -0 -0 -0 -0 -0 -0 -0 -44 -35 -28 -0 -0 -0 -0 -0 -0 -0 -0 -0 -0 -31 -68 -43 -8 -1 -8 -6 -12 -40 -21
-0 -0 -0 -0 -0 -0 -0 -0 -0 -22 -32 -0 -0 -0 -0 -0 -0 -0 -0 -0 -0 -0 -0 -0 -0 -0 -0 -0 -0 -0 -0 -0 -0 -0 -0 -0 -0 -0 -0 -0 -0 -0 -0 -12 -8 -10 -31 -7 -21
-0 -0 -0 -0 -0 -0 -0 -0 -0 -0 -0 -0 -0 -0 -0 -0 -0 -0 -0 -0 -0 -0 -0 -0 -0 -0 -0 -0 -0 -0 -0 -0 -0 -0 -0 -0 -0 -0 -0 -0 -0 -0 -0 -0 -0 -1 -49 -0 -6
-0 -0 -0 -0 -0 -0 -0 -0 -0 -0 -0 -0 -0 -0 -0 -0 -0 -0 -0 -0 -0 -0 -0 -0 -0 -0 -0 -0 -0 -0 -0 -0 -0 -0 -0 -0 -0 -0 -0 -0 -0 -0 -0 -0 -0 -0 -1 -10 -0
-0 -0 -0 -0 -0 -0 -0 -0 -0 -0 -0 -0 -0 -0 -0 -0 -0 -0 -0 -0 -0 -0 -0 -0 -0 -0 -0 -0 -0 -0 -0 -0 -0 -0 -0 -0 -0 -0 -0 -0 -0 -0 -0 -0 -0 -0 -0 -0 -0
-0 -0 -0 -0 -0 -0 -0 -0 -0 -0 -0 -0 -0 -0 -0 -0 -0 -0 -0 -0 -0 -0 -0 -0 -0 -0 -0 -0 -0 -0 -0 -0 -0 -0 -0 -0 -0 -0 -0 -0 -0 -0 -0 -0 -0 -0 -0 -0 -0
-0 -0 -0 -0 -0 -0 -0 -0 -0 -0 -0 -0 -0 -0 -0 -0 -0 -0 -0 -0 -0 -0 -0 -0 -0 -0 -0 -0 -0 -0 -0 -0 -0 -0 -0 -0 -0 -0 -0 -0 -0 -0 -0 -0 -0 -0 -0 -0 -0
-0 -0 -0 -0 -0 -0 -0 -0 -0 -0 -0 -0 -0 -0 -0 -0 -0 -0 -0 -0 -0 -0 -0 -0 -0 -0 -0 -0 -0 -0 -0 -0 -0 -0 -0 -0 -0 -0 -0 -0 -0 -0 -0 -0 -0 -0 -0 -0 -0
-0 -0 -0 -0 -0 -0 -0 -0 -0 -0 -0 -0 -0 -0 -0 -0 -0 -0 -0 -0 -0 -0 -0 -0 -0 -0 -0 -0 -0 -0 -0 -0 -0 -0 -0 -0 -0 -0 -0 -0 -0 -0 -0 -0 -0 -0 -0 -0 -0
-0 -0 -0 -0 -0 -0 -0 -0 -0 -0 -0 -0 -0 -0 -0 -0 -0 -0 -0 -0 -0 -0 -0 -0 -0 -0 -0 -0 -0 -0 -0 -0 -0 -0 -0 -0 -0 -0 -0 -0 -0 -0 -0 -0 -0 -0 -0 -0 -0
-0 -0 -0 -0 -0 -0 -0 -0 -0 -0 -0 -0 -0 -0 -0 -0 -0 -0 -0 -0 -0 -0 -0 -0 -0 -0 -0 -0 -0 -0 -0 -0 -0 -0 -0 -0 -0 -0 -0 -0 -0 -0 -0 -0 -0 -0 -0 -0 -0
-0 -0 -0 -0 -0 -0 -0 -0 -0 -0 -0 -0 -0 -0 -0 -0 -0 -0 -0 -0 -0 -0 -0 -0 -0 -0 -0 -0 -0 -0 -0 -0 -0 -0 -0 -0 -0 -0 -0 -0 -0 -0 -0 -0 -0 -0 -0 -0 -0
-0 -0 -0 -0 -0 -0 -0 -0 -0 -0 -0 -0 -0 -0 -0 -0 -0 -0 -0 -0 -0 -0 -0 -0 -0 -0 -0 -0 -0 -0 -0 -0 -0 -0 -0 -0 -0 -0 -0 -0 -0 -0 -0 -0 -0 -0 -0 -0 -0
-0 -0 -0 -0 -0 -0 -0 -0 -0 -0 -0 -0 -0 -0 -0 -0 -0 -0 -0 -0 -0 -0 -0 -0 -0 -0 -0 -0 -0 -0 -0 -0 -0 -0 -0 -0 -0 -0 -0 -0 -0 -0 -0 -0 -0 -0 -0 -0 -0
-0 -0 -0 -0 -0 -0 -0 -0 -0 -0 -0 -0 -0 -0 -0 -0 -0 -0 -0 -0 -0 -0 -0 -0 -0 -0 -0 -0 -0 -0 -0 -0 -0 -0 -0 -0 -0 -0 -0 -0 -0 -0 -0 -0 -1 -0 -0 -0 -0
-0 -0 -0 -0 -0 -0 -0 -0 -0 -0 -0 -0 -0 -0 -0 -0 -0 -0 -0 -0 -0 -0 -0 -0 -0 -0 -0 -0 -0 -0 -0 -0 -0 -0 -0 -0 -0 -0 -0 -0 -0 -0 -0 -0 -1 -0 -0 -0 -0
-0 -0 -0 -0 -0 -0 -0 -0 -0 -0 -0 -0 -0 -0 -0 -0 -0 -0 -0 -0 -0 -0 -0 -0 -0 -0 -0 -0 -0 -0 -0 -0 -0 -0 -0 -0 -0 -0 -0 -0 -0 -0 -0 -0 -0 -0 -0 -0 -0
-0 -0 -0 -0 -0 -0 -0 -0 -0 -0 -0 -0 -0 -0 -0 -0 -0 -0 -0 -0 -0 -0 -0 -0 -0 -0 -0 -0 -0 -0 -0 -0 -0 -0 -0 -0 -0 -0 -0 -0 -0 -0 -0 -0 -0 -0 -0 -0 -0
-0 -0 -0 -0 -0 -0 -0 -0 -0 -0 -0 -0 -0 -0 -0 -0 -0 -0 -0 -0 -0 -0 -0 -0 -0 -0 -0 -0 -0 -0 -0 -0 -0 -0 -0 -0 -0 -0 -0 -0 -0 -1 -0 -0 -0 -0 -0 -0 -0
-0 -0 -0 -0 -0 -0 -0 -0 -0 -0 -0 -0 -0 -0 -0 -0 -0 -0 -0 -0 -0 -0 -0 -0 -0 -0 -0 -0 -0 -0 -0 -0 -0 -0 -0 -0 -0 -0 -0 -0 -0 -1 -0 -0 -0 -0 -0 -0 -0
-0 -0 -0 -0 -0 -0 -0 -0 -0 -0 -0 -0 -0 -0 -0 -0 -0 -0 -0 -0 -0 -0 -0 -0 -0 -0 -0 -0 -0 -0 -0 -0 -0 -0 -0 -0 -0 -0 -0 -0 -0 -0 -0 -0 -0 -0 -0 -0 -0
-0 -0 -0 -0 -0 -0 -0 -0 -0 -0 -0 -0 -0 -0 -0 -0 -0 -0 -0 -0 -0 -0 -0 -0 -0 -0 -0 -0 -0 -0 -0 -0 -0 -0 -0 -0 -0 -0 -0 -0 -0 -0 -0 -0 -0 -0 -0 -0 -0
-0 -0 -0 -0 -0 -0 -0 -0 -0 -0 -0 -0 -0 -0 -0 -0 -0 -0 -0 -0 -0 -0 -0 -0 -0 -0 -0 -0 -0 -0 -0 -0 -0 -0 -0 -0 -0 -0 -0 -0 -0 -0 -0 -0 -0 -0 -0 -0 -0
-0 -0 -0 -0 -0 -0 -0 -0 -0 -0 -0 -0 -0 -0 -0 -0 -0 -0 -0 -0 -0 -0 -0 -0 -0 -0 -0 -0 -0 -0 -0 -0 -0 -0 -0 -0 -0 -0 -0 -0 -0 -0 -0 -0 -0 -0 -0 -0 -0
Wind_Speed
19 18 15 13 16 18 22 22 21 26 23 15 14 13 12 15 18 18 12 12 6 4 5 6 5 6 7 7 8 8 9 9 9 9 10 10 10 11 11 12 12 13 13 14 14 14 13 14 13
17 14 13 15 20 23 25 23 27 28 18 7 11 13 17 17 14 8 10 9 4 5 5 5 5 6 7 7 8 8 9 9 10 10 10 11 12 12 12 13 14 14 15 15 15 16 15 13 13
15 13 15 18 22 24 24 20 20 15 12 12 15 16 15 13 11 10 6 5 5 6 5 5 5 6 7 8 8 9 10 11 11 12 12 13 13 14 15 15 16 16 17 18 18 18 17 16 16
12 14 18 24 25 24 24 19 19 17 15 16 12 15 15 15 9 9 5 3 4 5 5 6 6 7 8 9 9 10 11 12 13 14 15 15 16 16 16 17 18 19 19 19 19 19 20 19 18
14 17 23 26 30 29 26 27 27 19 17 16 14 13 13 13 5 3 4 3 2 5 6 7 7 8 9 10 11 12 13 14 15 16 16 17 17 18 18 18 18 18 19 20 21 21 21 21 21
17 19 23 29 29 28 27 28 28 20 15 14 13 10 11 5 3 3 2 3 3 4 6 7 8 9 10 10 11 12 13 14 15 16 17 17 18 19 20 21 21 21 21 21 21 21 21 22 22
21 22 27 28 29 30 28 31 19 12 13 14 4 10 10 4 2 1 1 2 3 4 6 7 9 9 10 11 11 12 13 14 15 15 17 17 18 20 21 22 23 23 24 24 24 24 23 22 23
22 24 28 30 31 33 26 23 17 11 14 11 11 9 9 5 3 2 1 2 3 5 6 7 9 10 10 11 11 12 13 13 14 15 15 16 17 19 20 22 23 24 26 28 27 28 28 25 24
18 27 34 29 28 28 27 22 18 16 12 12 15 11 15 6 6 2 2 5 4 6 7 8 10 11 11 12 13 13 14 14 15 16 18 18 19 20 21 23 24 26 27 28 30 31 31 30 30
23 29 29 24 27 27 25 21 19 16 15 17 17 18 3 9 7 6 5 3 3 4 9 10 10 10 12 13 13 13 14 15 15 17 19 21 22 24 25 26 27 28 30 30 31 31 32 32 31
26 34 27 25 25 24 23 22 22 21 20 24 12 3 6 8 10 11 11 8 5 2 8 8 9 10 11 11 12 12 14 15 16 19 22 23 24 26 27 28 29 31 32 33 33 34 33 33 33
31 32 27 26 24 27 27 25 26 26 25 22 5 10 12 13 17 15 11 7 3 0 3 7 9 10 11 11 12 13 15 16 18 21 23 24 25 26 27 28 30 32 32 34 34 34 35 35 34
35 30 27 30 30 31 27 32 31 31 29 23 18 5 11 11 9 5 6 4 5 2 3 6 8 9 9 11 13 15 16 18 20 22 23 24 25 26 26 27 28 30 31 32 33 33 34 35 36
24 31 38 29 31 30 33 34 31 30 34 33 25 11 9 8 7 8 7 5 5 4 4 6 7 8 10 12 14 16 18 20 22 23 24 25 25 26 26 27 29 30 32 33 33 34 35 35 36
25 29 29 32 32 33 29 43 44 37 32 32 22 16 9 9 7 7 6 6 6 6 6 6 6 8 11 13 15 18 19 21 23 24 24 25 26 26 28 29 31 32 32 33 34 35 36 36 38
27 28 37 31 27 28 27 48 32 28 31 38 27 15 11 9 9 7 6 5 5 6 6 4 6 8 11 13 16 18 20 22 23 25 26 27 28 28 29 30 31 32 33 33 34 35 37 37 38
24 31 35 34 27 27 28 36 29 26 26 30 23 18 17 15 14 9 7 6 5 5 5 5 6 9 11 14 16 18 21 22 24 27 28 28 28 29 29 30 31 31 32 32 34 35 37 40 39
26 27 30 30 26 28 32 41 33 26 24 27 21 19 15 14 11 10 8 6 5 5 5 6 7 10 12 14 17 20 21 23 27 27 28 29 29 30 30 31 31 31 33 34 35 37 37 38 40
18 21 25 27 26 28 36 40 40 36 34 33 30 25 18 13 11 8 7 5 4 5 6 7 8 10 13 16 19 21 24 27 25 28 28 29 29 31 32 32 33 34 35 37 37 38 39 39 39
33 30 33 31 26 26 32 41 41 38 38 37 34 23 18 16 11 9 7 6 6 6 6 7 9 10 14 16 19 21 24 24 25 26 28 29 30 33 34 36 36 36 37 37 38 38 40 39 36
31 33 32 34 28 29 33 42 38 34 36 34 32 26 18 14 12 10 9 8 6 6 7 7 8 10 13 16 19 22 25 24 26 29 31 30 32 33 35 36 37 37 37 38 37 36 36 39 36
35 28 31 32 31 35 27 41 35 29 32 30 29 21 19 16 14 12 11 10 9 7 7 7 9 11 14 17 20 23 25 27 26 30 30 33 33 35 35 36 37 37 36 35 34 32 31 34 36
30 24 25 28 32 34 34 36 37 30 36 38 32 24 17 15 14 14 12 11 9 7 7 7 9 12 14 17 20 22 24 26 28 30 32 34 35 35 36 36 35 34 33 32 31 30 29 29 31
18 22 22 23 27 42 36 33 44 35 34 32 29 21 16 14 13 13 11 9 8 7 8 8 10 12 14 18 20 22 24 26 28 30 33 35 36 35 34 34 33 32 30 29 28 28 28 29 29
22 22 31 34 35 43 28 33 42 35 30 27 27 20 15 12 12 13 13 11 9 8 8 8 10 12 15 18 19 21 23 24 27 29 33 36 36 35 34 33 32 30 29 28 27 26 26 27 27
27 26 29 36 38 37 29 40 36 31 32 32 28 17 12 11 11 12 12 11 9 8 8 8 10 12 14 16 19 20 21 23 25 28 31 32 34 34 32 33 32 29 27 24 23 24 25 27 26
27 33 27 34 33 36 33 36 36 29 25 22 20 12 11 8 9 10 10 10 9 8 7 8 9 11 13 15 17 18 20 22 25 27 28 31 32 32 33 30 29 26 25 21 20 21 20 17 17
31 27 31 32 40 43 39 40 37 28 26 20 15 14 11 9 8 8 9 8 7 7 7 8 9 11 12 14 16 17 18 21 24 26 29 31 31 31 30 29 28 26 24 21 18 18 18 15 16
32 35 31 31 36 39 40 40 31 38 30 20 17 16 13 11 9 8 7 6 6 7 7 7 9 10 11 12 14 15 17 21 22 25 27 29 30 29 28 28 26 25 22 22 21 16 15 13 13
28 34 34 36 38 37 39 45 23 24 26 24 20 18 15 12 9 7 6 5 6 7 7 7 8 8 9 10 12 14 17 19 21 23 25 27 29 28 29 23 21 23 18 18 19 13 12 10 13
Wind_Direction
296 299 309 309 292 294 287 289 286 280 289 302 303 295 294 291 285 283 305 302 319 346 352 350 358 9 0 353 352 355 359 3 356 346 337 335 336 337 337 333 333 327 324 320 316 311 305 299 301
297 301 304 298 283 281 283 285 285 283 295 314 317 305 294 287 296 304 306 314 345 339 350 353 358 357 2 359 352 343 344 348 346 340 339 331 323 323 326 326 324 323 319 316 316 313 312 308 302
294 298 286 283 279 275 281 286 296 310 308 305 304 304 295 291 292 292 316 338 332 343 347 359 357 354 351 353 351 346 337 334 330 325 325 326 322 319 317 317 318 319 315 312 310 309 308 306 302
288 287 286 274 274 279 278 284 299 302 301 304 312 303 303 297 288 282 294 319 320 334 347 355 357 348 343 339 336 333 331 328 323 319 316 317 318 318 317 316 315 313 312 312 310 308 305 304 301
282 280 272 274 270 274 275 278 287 290 297 300 301 296 301 299 295 266 278 297 327 322 327 332 339 339 338 335 333 329 325 323 320 316 314 314 315 315 315 315 315 315 314 311 308 306 305 303 302
269 274 273 267 269 273 277 276 284 287 299 304 302 299 303 303 288 275 284 295 325 331 329 333 336 337 336 336 335 334 333 329 324 321 319 318 318 316 313 312 312 312 312 312 311 309 307 304 300
264 267 267 268 269 270 272 279 286 280 296 303 326 294 294 280 277 250 289 344 346 350 353 347 343 343 342 342 341 338 339 337 332 328 325 323 322 321 319 317 314 311 310 310 308 307 306 304 301
264 269 267 266 265 265 282 289 283 286 296 299 294 295 284 253 152 141 337 344 348 336 341 340 340 344 345 343 343 340 336 334 335 335 335 333 331 328 325 322 318 315 311 307 307 305 304 303 301
268 264 260 263 266 269 277 284 285 290 297 290 279 282 286 149 142 163 264 293 313 319 323 327 320 322 331 324 320 322 325 328 329 329 327 329 330 329 328 325 323 320 316 313 309 305 302 300 299
258 259 263 270 267 273 276 279 276 280 283 277 272 270 280 139 152 157 151 157 283 306 302 313 321 325 318 316 322 327 328 329 334 335 331 329 328 326 324 323 321 319 316 314 313 310 307 303 299
261 258 260 269 269 271 273 275 270 269 273 265 272 245 143 150 149 150 148 147 144 315 311 320 319 319 321 325 331 332 335 336 338 335 331 330 328 326 326 324 322 319 317 314 312 309 307 305 301
260 259 264 266 268 263 266 272 266 263 267 270 265 159 156 160 163 162 159 160 179 215 326 320 316 315 318 325 332 333 334 335 336 333 333 332 332 332 331 328 324 321 320 316 314 311 308 304 302
257 261 264 265 264 263 271 262 263 259 257 264 271 244 173 174 176 212 260 202 182 216 304 315 318 321 326 328 327 330 332 333 333 333 335 337 336 335 335 333 330 327 325 322 317 315 311 306 303
271 264 257 265 263 266 264 263 265 263 253 254 264 259 188 203 209 264 268 250 221 248 279 304 312 319 323 322 324 326 328 330 332 334 335 337 338 336 336 333 331 327 325 321 318 315 311 306 303
271 266 267 263 262 263 268 256 245 261 262 259 264 266 214 209 237 239 233 225 246 262 277 292 305 314 317 322 324 324 328 329 331 335 338 338 339 338 335 332 329 327 326 323 319 315 311 307 302
267 267 258 267 263 265 264 243 260 271 259 251 261 255 245 232 242 241 233 227 250 264 268 283 305 314 317 321 324 326 326 329 333 336 337 336 335 335 334 331 329 327 325 323 320 316 312 308 304
272 265 261 265 265 262 258 255 267 268 265 260 261 257 257 260 268 254 229 234 247 243 244 274 299 311 315 320 323 324 326 330 334 333 335 336 337 336 334 332 331 330 328 326 322 318 313 308 305
271 269 265 264 268 258 256 250 258 267 269 264 263 263 262 260 241 254 245 253 242 219 242 275 300 312 317 320 320 322 326 330 331 335 337 337 337 336 334 332 330 329 326 324 321 318 315 310 306
282 275 271 268 270 262 254 253 254 260 262 260 261 264 266 256 260 244 237 234 226 234 247 274 295 307 313 316 318 320 322 325 332 334 336 338 337 335 333 331 329 327 323 320 318 316 313 310 309
266 271 266 269 270 264 262 255 258 261 259 261 263 264 262 265 253 242 230 224 217 226 252 277 294 306 313 317 320 323 325 329 332 336 337 338 337 335 333 330 328 326 323 320 318 315 312 310 310
267 266 266 264 270 270 269 261 263 267 264 266 267 268 255 237 230 225 221 215 217 231 250 273 291 305 314 320 323 324 325 330 332 334 335 338 337 337 335 333 331 327 324 320 319 317 313 309 309
265 272 267 265 265 264 269 260 264 270 268 269 270 266 255 239 235 218 216 218 217 235 252 273 291 305 315 320 322 325 326 327 333 334 337 337 338 337 336 335 333 330 328 325 322 321 319 316 311
269 277 273 269 265 266 263 266 261 271 268 266 269 271 261 238 223 216 214 216 227 234 241 269 291 305 315 321 325 327 328 330 333 336 337 338 339 339 338 338 337 335 332 330 328 325 322 318 314
277 276 280 277 271 260 262 264 260 265 270 275 276 272 263 247 232 220 222 220 229 240 246 268 290 305 315 321 326 328 330 332 335 337 338 340 340 342 342 342 340 338 336 334 332 328 324 320 317
272 270 266 264 261 260 270 266 264 265 272 277 279 274 263 251 232 221 210 213 217 220 240 268 289 304 314 321 326 330 333 337 338 340 341 341 344 344 345 345 343 341 338 337 334 331 328 324 320
262 265 263 263 262 267 271 263 272 273 273 270 277 279 266 250 230 212 204 206 208 221 241 270 289 304 314 322 327 333 337 340 344 344 345 346 347 347 348 347 345 344 344 345 342 335 330 326 324
265 259 267 268 272 269 267 266 273 275 278 278 267 269 261 239 216 204 198 199 204 219 240 267 290 305 316 324 330 336 342 345 346 348 351 351 351 351 350 351 350 351 349 352 350 346 342 341 337
262 267 262 263 262 262 265 265 264 272 273 277 269 257 247 240 224 213 201 206 219 236 258 280 294 305 317 325 332 340 346 349 350 354 354 354 353 355 357 357 355 355 357 1 0 357 353 348 342
259 258 263 266 261 263 265 266 272 264 271 270 266 255 240 229 218 214 217 223 234 258 269 282 296 306 317 326 335 345 349 352 358 359 359 358 358 2 3 1 2 2 3 2 1 3 358 352 344
266 260 255 256 258 262 265 261 282 279 276 270 259 249 239 230 220 220 226 228 256 256 269 281 296 306 318 330 340 348 351 359 3 5 6 6 4 9 8 15 13 7 11 7 2 2 359 344 342